Weather in Kozuchow

Poland     51°44′30″N   15°35′26″E
temp.,
°C
wind,
m/s
gust,
m/s
humid.,
%
clouds,
%
prec.,
mm/h
press.,
hPa
HPBL,
m
18 may, tue
tue1823:00+9wsw3995100 0.4 1006199
02:00+9wsw41196100 0.4 1007326
05:00+8wsw41198100 0.0 1007337
08:00+9w5993100 0.0 1009471
11:00+12w5882100 0.0 1010784
14:00+14w797680 0.7 10101142
17:00+16wnw575687 0.6 10101738
20:00+12wnw388083 0.8 1011319
19 may, wed
wed1923:00+8w22925 0.0 101238
02:00+6wsw35955 0.0 1013100
05:00+7w389981 0.1 1013204
08:00+10w468996 0.3 1014468
11:00+9w479499 0.9 1014372
14:00+13wnw4669100 1.3 1014901
17:00+15w4558100 0.3 10131386
20:00+12nnw117619 0.9 101413
20 may, thu
thu2023:00+8sw01875 0.1 101510
02:00+6wsw22923 0.1 101519
05:00+6wsw23955 0.1 101644
08:00+10w46878 0.4 1018383
11:00+14wnw5670100 0.6 10181376
14:00+14wnw576532 1.2 10181379
17:00+17wnw574363 0.1 10182338
20:00+12w377261 1.3 1019167
21 may, fri
fri2123:00+8wsw22865 0.0 102024
02:00+6sw339298 0.0 101947
05:00+6ssw3790100 0.0 1018119
08:00+11ssw41073100 0.0 1017335
11:00+16ssw6851100 0.0 10151336
14:00+18ssw6944100 0.0 10132204
17:00+16wsw61056100 0.1 10111560
20:00+12ssw41284100 0.3 1010615
22 may, sat
sat2223:00+11s2281100 0.0 100829
02:00+11s3876100 0.0 1006194
05:00+11s31184100 0.1 1004287
08:00+12sw3892100 0.6 1005355
11:00+13sw4984100 0.1 1005841
14:00+13wsw5879100 0.8 10061004
17:00+16wsw6953100 0.1 10051908
20:00+13sw41063100 0.1 1007517